User: anonymous   Login
Location: Chenango Forks
(42.2242°N, 75.8278°W)
Time: 04:24:42
(UTC-05:00)
Language:

Okean 3 Rocket - Orbit

View from above orbital plane
View from above orbital plane
View from above satellite
View from above satellite

Ground track
Ground track

The orbit data is extracted from the following two-line orbital elements,

1 21398U 91039B   17346.81480642  .00000096  00000-0  97605-5 0  9996
2 21398  82.5244  59.9139 0020409 320.3839 178.8116 14.79689128430328
Epoch (UTC): 12 December 2017 19:33:19
Eccentricity: 0.0020409
inclination: 82.5244°
perigee height: 616 km
apogee height: 644 km
right ascension of ascending node: 59.9139°
argument of perigee: 320.3839°
revolutions per day: 14.79689128
mean anomaly at epoch: 178.8116°
orbit number at epoch: 43032

The dashed part of the orbit path shows where the satellite is in the earth's shadow,  

DLR